This is the latest recevied weather packets stored in our database for station/object HA2SKA-1. If no packets are shown the sender has not sent any weather packets the latest 10 day(s).
| Time | Temp. | Humidity | Pressure | Rain* | Wind** | Luminosity | Snow |
|---|---|---|---|---|---|---|---|
| 1788596413 | 25° C | 55% | 1020.9 hPa | - | - | - | - |
| 1788595513 | 25° C | 54% | 1020.6 hPa | - | - | - | - |
| 1788594613 | 24.44° C | 55% | 1020.5 hPa | - | - | - | - |
| 1788593713 | 25° C | 57% | 1020 hPa | - | - | - | - |
| 1788592820 | 25° C | 60% | 1019.8 hPa | - | - | - | - |
| 1788591913 | 26.11° C | 57% | 1019.7 hPa | - | - | - | - |
| 1788591013 | 25.56° C | 61% | 1019 hPa | - | - | - | - |
| 1788590113 | 26.11° C | 77% | 1018.6 hPa | - | - | - | - |
| 1788589245 | 25.56° C | 85% | 1018.3 hPa | - | - | - | - |
| 1788588312 | 26.67° C | 81% | 1018.1 hPa | - | - | - | - |
| 1788587412 | 26.67° C | 89% | 1017.8 hPa | - | - | - | - |
| 1788586512 | 25° C | 100% | 1017.8 hPa | - | - | - | - |
| 1788585612 | 22.22° C | 100% | 1017.5 hPa | - | - | - | - |
| 1788584712 | 21.67° C | 100% | 1017.3 hPa | - | - | - | - |
| 1788583812 | 23.33° C | 100% | 1017.2 hPa | - | - | - | - |
| 1788582912 | 21.67° C | 100% | 1017.1 hPa | - | - | - | - |
| 1788582012 | 20.56° C | 100% | 1017 hPa | - | - | - | - |
| 1788581112 | 21.11° C | 100% | 1016.8 hPa | - | - | - | - |
| 1788580212 | 21.11° C | 100% | 1016.4 hPa | - | - | - | - |
| 1788579312 | 23.33° C | 100% | 1016.2 hPa | - | - | - | - |
| 1788578411 | 22.78° C | 100% | 1016.1 hPa | - | - | - | - |
| 1788577511 | 22.78° C | 100% | 1016.2 hPa | - | - | - | - |
| 1788576611 | 23.33° C | 100% | 1016.4 hPa | - | - | - | - |
| 1788575711 | 23.33° C | 99% | 1016.3 hPa | - | - | - | - |
| 1788574811 | 23.33° C | 99% | 1016.3 hPa | - | - | - | - |
* Rain since midnight (hover to see other rain measurements)
** Current wind speed in m/s (hover to see current wind gust speed)